ECMWFNIL_925_temp_162.txt.gz
Temp
20 20 20 20 20 20 20 20 21 21 21 21 20 20 20 20 20 20 19 19 19 19 19 19 19 19 20 20 20 20 20 20 20 20 20 20 20 20 20 20 20 20
20 20 20 20 20 19 19 20 20 21 21 20 20 20 21 21 20 20 19 19 19 19 19 20 19 19 20 20 20 20 20 20 20 20 20 20 20 20 20 20 20 20
20 20 20 20 20 20 19 19 20 20 20 20 20 20 20 21 20 20 20 19 19 19 19 20 20 20 20 20 20 20 20 20 20 20 20 20 20 20 20 20 20 20
20 20 20 20 20 20 19 19 19 20 20 19 19 20 20 20 20 19 19 19 19 20 20 20 20 20 20 20 20 20 20 20 20 20 20 20 20 20 20 20 20 20
20 20 20 20 20 21 20 19 19 19 19 19 19 19 19 19 19 19 19 19 19 20 20 20 20 20 20 20 20 20 20 20 20 20 20 20 20 20 20 20 20 20
19 19 20 20 20 20 20 20 19 19 19 19 19 19 19 19 19 19 19 19 20 20 20 20 20 20 20 20 20 20 20 19 20 20 20 20 20 19 19 20 20 20
19 20 20 20 20 19 19 20 20 19 19 19 19 19 19 19 19 19 19 20 20 20 20 20 20 20 20 20 20 20 20 19 20 20 20 20 20 19 19 20 20 20
20 20 20 21 20 19 17 18 20 20 20 19 19 19 19 19 19 19 20 20 20 20 20 21 21 20 20 20 20 20 20 20 20 20 20 20 20 19 19 20 20 20
20 20 20 20 21 20 19 19 20 20 20 20 19 18 19 19 19 19 20 20 19 19 20 21 21 21 21 20 20 20 20 20 20 20 20 20 20 19 20 20 20 20
20 20 20 20 20 21 21 20 20 20 20 20 19 18 18 19 20 20 19 20 20 19 20 21 21 21 21 21 21 20 20 20 20 20 20 20 20 20 20 20 20 19
21 20 20 20 21 21 21 20 20 19 19 19 19 19 19 19 20 20 19 19 20 20 21 21 21 21 21 21 21 21 21 21 20 20 20 20 20 20 20 20 20 20
21 21 20 20 20 21 21 21 20 19 19 20 20 19 19 19 20 20 19 19 20 20 21 21 21 21 21 21 21 21 21 21 20 20 20 20 20 20 19 20 20 20
20 20 20 20 20 20 20 20 20 20 19 20 20 19 19 19 19 19 19 19 19 19 20 21 21 21 21 21 21 21 21 21 21 20 20 20 20 20 20 20 20 20
18 19 18 18 20 20 19 20 20 20 20 20 20 20 19 19 19 19 19 18 19 19 19 20 21 21 21 21 21 21 21 20 20 20 20 20 20 20 20 20 20 20
17 17 16 17 19 20 20 20 20 20 20 20 20 20 20 19 19 19 19 19 19 19 19 19 20 21 21 21 21 21 21 20 20 20 20 20 20 20 20 20 20 20
15 16 15 15 18 20 20 20 19 20 19 19 20 19 19 19 19 18 19 19 19 19 19 19 19 20 20 20 20 21 21 20 20 20 20 21 21 21 20 20 20 20
14 15 15 14 15 18 19 20 19 19 19 19 19 19 19 19 19 19 19 19 19 19 19 19 19 19 20 20 20 20 20 20 20 20 20 20 21 21 21 20 20 20
14 15 15 15 15 17 18 19 19 18 18 18 19 19 19 19 19 19 19 19 19 19 19 19 19 19 20 20 20 20 20 20 20 20 20 20 20 21 21 21 21 21
16 15 15 15 16 16 17 18 18 17 17 17 18 18 19 19 19 19 19 19 19 19 19 19 19 19 19 20 21 20 20 19 19 19 19 20 20 20 21 21 22 21
18 16 15 14 15 15 15 15 17 17 16 17 18 19 19 19 19 19 20 20 19 19 19 19 19 19 19 20 20 20 20 19 19 19 20 20 20 20 21 21 21 21
18 17 16 15 14 15 15 15 16 17 17 18 18 19 19 19 19 19 19 20 20 19 19 19 19 19 19 19 19 19 19 19 19 19 20 20 21 21 21 21 21 21
16 17 17 15 14 15 15 15 15 16 17 18 18 18 19 19 19 19 19 19 19 19 19 19 19 19 19 19 19 19 19 18 18 18 19 20 20 20 21 21 21 21
15 16 17 17 17 17 16 15 15 16 17 17 17 18 18 18 18 19 19 20 19 20 19 20 20 19 19 19 19 18 18 18 17 18 19 20 20 20 21 21 20 20
14 14 15 17 18 18 17 16 16 16 16 16 17 18 18 19 19 19 19 19 19 19 20 20 20 20 19 19 19 18 18 17 17 18 19 19 20 20 21 21 21 20
12 13 14 15 16 18 18 18 18 17 17 16 15 17 18 19 19 19 19 19 19 19 19 19 19 20 20 19 19 18 18 17 18 19 19 19 20 21 21 21 21 21
12 12 13 14 15 16 17 18 18 19 19 18 16 16 17 17 18 19 19 19 19 19 19 19 19 19 20 19 19 18 18 17 18 19 20 20 20 21 21 21 22 21

ECMWFNIL_925_temp_168.txt.gz
Temp
18 17 17 17 17 17 17 17 17 17 17 17 18 18 19 20 21 21 21 21 21 21 21 21 20 20 21 21 21 21 21 21 21 20 20 20 20 20 20 20 21 21
19 18 17 16 16 16 17 17 17 17 17 18 18 18 18 19 20 21 21 21 21 21 21 21 20 20 21 21 21 21 21 21 21 20 20 20 20 20 20 20 21 21
19 19 17 16 16 17 17 17 16 17 17 18 18 18 18 19 20 21 21 21 21 21 21 21 21 21 21 21 21 21 21 21 21 20 20 20 20 20 20 20 21 21
19 19 18 17 16 17 17 17 16 16 17 17 18 18 18 18 19 20 21 20 20 20 20 21 21 21 21 21 21 21 21 21 21 21 20 20 20 20 20 20 21 21
20 20 19 17 16 17 17 17 16 16 17 17 18 18 17 17 19 20 20 20 20 20 20 20 21 21 21 21 21 21 21 21 21 21 21 21 20 20 20 20 21 21
20 20 19 18 17 16 17 18 17 16 16 17 17 18 17 17 18 19 19 20 20 20 20 20 20 20 21 21 21 21 21 21 21 21 21 21 21 21 21 21 21 21
20 20 20 19 18 16 16 18 18 16 16 17 17 17 17 17 18 18 18 19 19 19 20 20 20 20 20 21 21 21 21 21 21 21 21 21 21 21 21 21 21 21
20 20 20 20 19 17 15 16 17 16 16 16 17 17 17 17 17 17 18 19 19 18 18 19 20 20 20 20 21 21 21 21 21 21 21 21 21 21 21 21 21 21
20 20 20 20 20 19 18 17 16 16 17 16 16 16 17 17 17 17 17 18 19 19 18 18 19 20 20 20 20 20 21 21 21 21 21 22 21 21 21 21 21 21
19 19 19 19 19 20 20 18 16 16 17 17 16 16 17 17 17 17 16 17 18 19 18 18 18 19 20 20 20 20 20 20 21 21 21 21 21 21 21 21 21 21
19 19 19 19 19 19 19 18 18 16 16 17 17 16 16 16 17 17 17 16 17 18 19 19 18 19 19 20 20 20 20 20 20 20 21 21 21 21 21 22 22 22
18 19 19 19 19 19 18 17 18 17 15 16 17 16 16 16 17 17 17 17 18 18 19 19 19 18 18 19 20 20 20 20 20 20 20 20 20 21 21 22 22 22
18 18 19 19 19 19 17 16 17 17 15 15 16 16 17 17 17 16 17 18 18 18 18 18 19 18 18 18 19 19 19 20 19 20 20 20 20 20 20 21 22 22
18 18 19 19 19 18 16 16 17 17 17 16 16 17 17 17 17 17 17 18 18 18 19 18 18 18 18 18 19 19 19 19 20 20 20 19 19 19 20 21 21 22
17 18 18 18 18 18 16 15 16 17 17 17 16 16 16 17 17 17 17 18 18 19 19 18 17 18 19 19 19 19 19 19 20 20 19 19 19 19 20 20 21 21
17 18 18 18 18 18 16 15 15 16 16 16 15 16 16 16 17 17 17 18 18 19 19 19 18 18 19 20 20 19 19 19 19 19 19 19 19 19 19 20 20 21
17 17 18 18 18 18 16 14 14 16 15 15 15 15 16 16 16 17 17 17 17 17 17 17 17 17 18 20 20 20 20 19 20 19 19 19 19 19 19 20 20 20
17 17 17 17 18 18 17 15 14 15 15 14 15 15 15 16 16 16 16 17 16 16 16 16 17 17 18 18 19 20 20 20 20 20 19 19 19 19 19 20 20 20
16 16 17 17 17 18 17 15 14 14 14 14 15 15 15 15 15 15 16 16 16 16 16 16 17 18 18 18 18 19 20 21 20 20 20 19 19 19 19 19 19 19
15 15 16 16 17 17 17 16 15 14 14 15 15 15 15 15 15 15 16 16 16 16 16 16 16 17 18 18 18 18 19 20 21 20 20 19 19 19 19 19 20 20
13 14 15 15 16 17 17 17 16 15 15 15 15 15 15 15 15 15 15 16 16 16 16 16 16 16 17 17 17 17 17 18 19 20 21 20 20 20 20 20 20 20
12 13 14 15 15 16 16 17 16 16 15 14 14 15 15 15 15 15 15 16 16 17 17 17 17 18 18 18 18 18 17 17 17 18 19 19 19 20 20 21 21 21
11 12 13 13 14 15 15 16 16 16 16 15 15 15 15 15 15 15 15 15 16 16 17 17 19 20 19 18 18 19 19 19 19 18 16 16 16 17 18 19 20 21
11 11 12 12 12 13 13 14 14 15 16 16 15 15 15 15 15 14 15 15 15 16 16 17 18 20 20 19 19 20 19 19 20 19 18 16 16 17 17 18 18 19
9 10 10 10 11 11 11 12 13 14 15 16 16 16 16 16 15 14 15 15 15 16 16 17 17 18 19 20 20 20 19 19 19 18 17 17 17 18 18 19 19 19
8 9 9 9 9 10 10 11 12 13 14 15 16 16 17 16 15 14 14 14 15 15 16 16 16 17 17 18 19 20 19 18 17 17 17 17 17 17 18 18 19 18

ECMWFNIL_925_temp_174.txt.gz
Temp
12 12 13 13 14 15 15 15 15 15 16 16 16 16 16 16 17 17 17 17 17 17 18 18 18 18 18 18 19 19 19 19 19 19 19 19 19 18 18 18 18 18
12 12 12 13 13 14 15 15 15 15 16 16 16 16 16 16 17 17 17 17 17 17 17 18 18 18 18 18 18 19 19 19 19 19 19 19 19 18 18 18 18 18
11 11 12 12 13 13 14 15 15 15 15 16 16 16 16 16 16 16 17 17 17 17 17 18 18 18 18 18 18 19 19 19 19 19 19 19 19 18 18 18 18 18
11 11 11 12 12 13 13 14 14 15 15 16 16 16 16 16 16 16 16 17 17 17 17 17 17 18 18 18 18 19 19 19 19 19 19 19 19 18 18 18 18 18
10 10 11 11 12 12 13 13 13 14 15 15 16 16 16 16 16 16 16 16 17 17 17 16 17 17 18 18 19 19 19 19 19 18 18 18 18 18 18 18 18 18
10 10 10 11 11 12 12 12 13 13 14 15 16 16 16 16 16 16 16 16 16 17 16 16 16 17 17 18 18 19 19 19 18 18 18 18 18 18 18 18 18 18
10 10 10 10 11 11 12 12 13 13 14 15 16 16 16 16 16 16 16 16 16 16 17 17 16 17 17 17 17 17 18 18 18 18 18 17 17 17 17 18 18 18
9 9 10 10 10 11 11 12 13 14 14 14 15 16 16 16 16 16 16 16 16 16 16 17 17 16 17 17 16 16 17 18 18 17 17 17 17 17 18 18 18 18
9 9 9 10 10 10 11 13 13 14 14 14 15 16 17 17 16 16 16 16 16 16 16 16 17 17 17 17 16 16 17 17 17 17 17 17 17 17 18 18 18 18
8 9 9 9 10 11 11 12 13 13 14 14 15 16 16 17 16 16 16 16 16 16 16 16 16 17 17 17 16 16 17 17 17 17 17 17 17 18 18 18 18 18
8 8 8 9 10 10 11 12 12 13 14 14 14 15 16 16 16 16 15 16 16 16 16 16 16 16 17 17 16 16 17 17 17 17 17 17 17 18 18 18 18 19
8 8 8 9 9 10 11 12 12 12 13 14 15 16 16 16 16 15 15 15 16 16 16 16 16 16 16 16 16 16 16 17 17 17 17 17 18 18 18 18 19 19
8 8 9 9 9 10 11 11 12 12 13 14 15 16 16 16 15 15 15 15 16 16 16 16 16 16 16 16 16 16 16 16 16 17 17 17 18 18 18 19 19 19
8 9 9 10 10 10 11 11 12 12 13 14 15 15 15 15 15 14 15 15 15 16 16 16 16 16 16 16 16 16 16 16 16 16 17 17 17 18 18 19 19 19
9 9 10 10 10 10 11 11 11 11 12 13 14 15 15 15 14 14 14 15 15 15 15 16 16 16 16 16 16 16 16 16 16 16 16 17 17 18 18 18 19 19
8 9 9 9 9 10 10 10 10 11 11 11 12 13 14 14 14 14 14 15 15 15 15 15 16 16 16 16 16 16 16 16 16 16 16 17 17 17 17 18 18 18
7 8 8 8 8 9 9 9 10 10 10 10 11 12 12 13 13 13 14 14 15 15 15 15 15 16 16 16 16 16 16 16 16 16 16 16 17 17 17 17 17 18
6 7 7 7 8 8 8 9 9 9 9 9 10 10 11 11 12 13 14 14 14 15 15 15 15 16 16 16 16 16 16 16 16 16 16 16 16 17 17 17 17 17
6 6 6 7 7 7 8 8 8 8 8 8 8 9 9 10 10 11 13 14 14 14 15 15 15 15 16 16 16 16 16 16 16 16 16 16 16 16 17 17 17 17
6 6 6 6 6 7 7 7 7 7 7 7 8 8 8 9 9 10 11 12 13 14 14 15 15 15 15 16 16 16 16 16 16 16 16 16 16 17 16 17 17 17
5 6 6 6 6 6 6 6 7 7 6 7 7 7 7 8 8 8 9 10 12 13 13 14 15 15 15 15 16 16 16 16 16 16 16 16 16 16 16 17 17 17
5 5 6 6 6 6 6 6 6 6 6 6 6 7 7 7 7 8 8 9 10 12 13 13 14 14 15 15 15 16 16 16 15 16 16 16 16 16 16 16 17 17
5 5 5 5 6 6 6 6 5 5 5 5 6 6 6 6 7 7 8 8 9 10 12 13 13 14 14 15 15 15 15 15 15 15 15 15 16 16 16 16 16 17
5 5 5 4 5 5 5 5 5 5 5 5 5 6 6 6 6 7 8 8 9 10 11 12 13 13 14 14 15 15 15 15 15 14 14 15 15 15 16 16 16 16
4 4 4 4 4 4 4 4 4 5 5 5 5 6 6 6 6 7 7 9 9 10 11 11 12 13 13 14 14 15 15 15 15 14 14 15 15 15 15 15 15 16
4 3 3 3 3 4 4 4 4 5 5 5 5 6 6 6 6 6 7 8 10 11 11 11 12 12 13 13 14 14 15 15 14 14 14 15 15 15 15 15 15 15

ECMWFNIL_925_temp_180.txt.gz
Temp
10 10 9 9 8 8 8 8 9 9 9 9 10 10 11 12 13 14 13 14 14 14 15 15 15 15 16 16 16 16 16 16 16 16 16 17 17 17 17 17 17 17
10 10 9 9 8 8 8 8 8 8 9 9 9 10 10 11 12 13 13 13 13 14 14 15 15 15 15 16 16 16 16 16 16 16 16 17 17 17 17 17 17 17
10 10 9 9 8 8 8 8 8 8 8 8 9 9 10 10 11 12 13 13 13 14 14 14 15 15 15 16 16 16 16 16 16 16 16 17 17 17 17 17 17 17
9 9 9 8 8 8 8 8 8 8 8 8 8 9 10 10 11 12 13 13 13 13 14 14 14 15 15 15 16 16 16 16 16 16 16 16 16 16 17 17 17 17
9 9 8 8 8 8 7 7 8 8 8 8 8 8 9 10 10 11 12 12 12 13 14 14 14 14 15 15 16 16 16 16 16 16 16 16 16 16 17 17 17 17
9 8 8 8 7 7 7 7 8 8 8 8 8 8 8 9 10 10 11 11 12 13 13 14 14 14 15 15 16 16 16 16 16 16 16 16 16 16 17 17 17 17
8 8 8 7 7 7 7 7 8 8 8 8 8 8 8 9 9 10 11 11 12 12 13 14 14 15 15 15 15 16 15 16 16 16 16 16 16 16 16 17 17 17
8 8 7 7 7 7 7 7 7 8 8 8 8 8 8 8 9 10 11 11 12 12 13 14 14 14 15 15 15 15 16 16 16 16 16 16 16 16 16 16 17 17
8 7 7 7 7 7 6 7 7 8 8 8 8 8 9 9 9 9 10 11 11 12 13 14 14 14 15 15 15 15 15 15 15 16 16 16 16 16 16 16 16 16
8 7 7 7 6 6 6 6 7 8 8 8 8 9 9 9 9 9 9 10 11 11 13 14 14 14 15 15 15 15 15 15 15 15 15 16 16 16 16 16 16 16
7 7 7 7 6 6 6 6 7 7 8 8 8 9 9 9 9 9 9 10 11 11 13 14 14 14 15 15 15 15 15 15 15 15 15 15 15 16 16 16 16 16
7 7 6 6 6 6 6 6 6 6 6 7 8 8 8 8 8 9 9 10 11 12 13 13 14 14 14 15 15 15 15 15 15 15 15 15 15 15 15 16 16 16
7 6 6 6 6 6 6 6 5 6 6 6 7 8 8 8 8 8 9 9 10 11 13 13 14 14 14 14 14 14 14 15 15 15 15 15 15 15 15 15 16 16
6 6 6 6 6 6 5 5 5 5 5 6 6 7 7 7 7 7 8 8 9 10 12 13 13 13 14 14 14 14 14 14 15 15 15 15 15 16 16 16 16 16
6 6 6 6 6 5 5 5 5 5 5 5 6 6 6 6 6 6 7 8 8 9 10 11 12 13 13 13 14 14 14 14 15 15 15 15 15 15 16 16 16 16
6 5 5 5 5 5 5 5 5 5 5 5 5 5 6 6 6 6 6 7 7 8 9 10 11 12 13 13 13 13 13 14 14 14 15 15 15 15 15 16 16 16
5 5 5 5 5 5 5 5 5 5 5 5 5 5 5 5 5 5 5 6 6 7 8 9 10 12 13 13 13 13 13 13 13 13 14 14 15 15 15 16 16 16
5 5 5 5 5 5 5 5 5 5 5 5 4 4 4 5 5 5 5 5 6 6 7 8 9 10 12 13 13 13 13 13 13 13 13 13 14 15 15 16 16 16
5 5 5 5 5 5 5 4 4 4 4 4 4 4 4 4 4 4 4 5 5 5 6 6 7 9 10 12 13 13 13 13 13 13 13 13 13 14 15 15 16 16
4 4 4 4 4 4 4 4 4 4 4 4 4 4 4 4 4 4 4 4 4 5 5 5 6 7 9 10 11 13 13 13 13 13 13 13 13 13 14 15 15 15
3 3 3 3 4 4 4 4 4 3 3 4 4 4 4 4 4 4 4 4 4 4 4 5 5 6 7 8 10 11 12 13 13 13 13 13 13 13 13 14 14 15
3 3 3 3 3 4 3 4 4 3 3 3 3 3 3 4 4 4 4 4 5 5 4 4 5 5 5 6 8 10 11 11 12 12 12 13 13 13 13 13 13 14
3 2 2 3 3 3 3 3 3 3 3 3 3 2 2 2 3 3 3 4 4 4 5 4 5 5 5 6 7 9 10 11 11 12 12 12 13 13 13 13 13 13
3 2 2 2 2 2 2 3 3 3 2 2 2 2 2 2 2 2 2 2 3 3 3 4 4 4 4 5 6 8 9 9 10 10 11 11 12 13 13 13 13 13
2 2 2 2 2 2 2 2 2 2 2 1 1 1 1 1 1 1 1 1 2 2 2 2 3 3 3 4 5 7 7 7 7 8 9 10 11 11 12 13 13 13
2 1 1 1 1 2 2 2 2 2 1 1 1 1 1 1 1 1 1 1 1 1 2 2 2 2 3 4 5 6 7 7 7 7 8 9 10 11 11 12 13 13